Location: Binningen
(47.7924°N, 8.7261°E)
Time: 13:14:39
(UTC+00:00)

ATLAS CENTAUR R/B - Visible Passes

Search period start: 24 September 2021 00:00
Search period end: 04 October 2021 00:00
Orbit: 459 x 683 km, 64.7° (Epoch: 22 September)

Date Brightness Start Highest point End Pass type
(mag) Time Alt. Az. Time Alt. Az. Time Alt. Az.
24 Sep 1.7 17:47:46 10° NW 17:52:25 70° NE 17:57:14 10° SE visible
24 Sep 4.1 19:27:32 10° WNW 19:30:54 19° WSW 19:34:19 10° SSW visible
25 Sep 1.8 17:49:40 10° NW 17:54:21 85° SW 17:59:12 10° SE visible
25 Sep 4.4 19:30:16 10° W 19:32:37 14° WSW 19:34:59 10° SW visible
26 Sep 2.3 17:51:38 10° NW 17:56:15 62° WSW 18:01:02 10° SSE visible
27 Sep 3.0 17:53:39 10° NW 17:58:06 43° WSW 18:02:41 10° S visible
28 Sep 3.6 17:55:46 10° NW 17:59:55 31° WSW 18:04:09 10° S visible
29 Sep 4.3 17:58:01 10° WNW 18:01:40 22° WSW 18:05:23 10° SSW visible
30 Sep 4.6 18:00:33 10° WNW 18:03:24 16° WSW 18:06:16 10° SSW visible
01 Oct 5.1 18:03:53 10° W 18:05:04 11° WSW 18:06:15 10° WSW visible
